DW1549 Fauske NO current weather conditions

sailwx.info

Wind from 119 at 12 knots gusting 26

Air temperature -0.0° C
Dewpoint -4.6° C

Last reported at 2015-Jan-29 04:48 UTC.
Time now 2015-Jan-29 06:23 UTC

Location: N 67°16' E 015°25'.
View on Google Maps.

See reports from other nearby stations

  
Tides and Currents Weather Stations Pressure Air Temp Water Temp Dewpoint Dewpoint Depression Visibility Wind Speed Wind Dir Waves Ship Positions
date/time (UTC)wind fromknots sea level pressurealtimeterstation pressurevisibilityair tempwater tempwave heightnotes
2015-Jan-29 04:48 119 12 gusting 26 -0.0
2015-Jan-29 04:38 119 13 gusting 26 -0.0
2015-Jan-29 04:28 108 13 gusting 18 -0.0
2015-Jan-29 04:18 098 12 gusting 22 -0.0
2015-Jan-29 04:08 121 11 gusting 25 -0.0
2015-Jan-29 03:58 098 12 gusting 27 -0.0
2015-Jan-29 03:48 091 14 gusting 20 -0.0
2015-Jan-29 03:38 107 9 gusting 22 -0.0
2015-Jan-29 03:28 094 11 gusting 19 -0.6
2015-Jan-29 03:18 100 11 gusting 21 -0.6
2015-Jan-29 03:08 088 9 gusting 21 -0.6
2015-Jan-29 02:58 119 14 gusting 21 -0.0
2015-Jan-29 02:48 107 13 gusting 24 -0.0
2015-Jan-29 02:38 124 15 gusting 22 -0.0
2015-Jan-29 02:28 121 11 gusting 25 -0.0
2015-Jan-29 02:18 122 13 gusting 30 -0.0
2015-Jan-29 02:08 131 13 gusting 20 -0.0
2015-Jan-29 01:58 139 10 gusting 19 -0.0
2015-Jan-29 01:48 127 13 gusting 22 -0.0
2015-Jan-29 01:38 131 13 gusting 22 -0.0
2015-Jan-29 01:28 120 17 gusting 27 -0.0
2015-Jan-29 01:18 148 14 gusting 26 -0.0
2015-Jan-29 01:08 152 14 gusting 31 -0.0
2015-Jan-29 00:58 140 17 gusting 30 -0.0
2015-Jan-29 00:48 132 16 gusting 30 -0.0
2015-Jan-29 00:38 130 18 gusting 30 0.6
2015-Jan-29 00:28 139 14 gusting 28 0.6
2015-Jan-29 00:18 141 12 gusting 22 0.6
2015-Jan-29 00:08 135 13 gusting 22 0.6
2015-Jan-28 23:58 156 14 gusting 25 0.6
2015-Jan-28 23:48 122 17 gusting 26 0.6
2015-Jan-28 23:38 132 12 gusting 26 0.6
2015-Jan-28 23:28 127 14 gusting 21 0.6
2015-Jan-28 23:18 116 13 gusting 19 0.6
2015-Jan-28 23:08 120 11 gusting 20 1.1
2015-Jan-28 22:58 141 10 gusting 17 1.1
2015-Jan-28 22:47 138 13 gusting 22 1.1
2015-Jan-28 22:38 138 12 gusting 20 1.1
2015-Jan-28 22:28 135 13 gusting 17 1.1
2015-Jan-28 22:18 115 9 gusting 17 1.1
2015-Jan-28 22:08 126 8 gusting 19 1.1
2015-Jan-28 21:58 135 7 gusting 17 1.7
2015-Jan-28 21:48 113 8 gusting 13 1.7
2015-Jan-28 21:38 131 8 gusting 17 1.7
2015-Jan-28 21:28 122 6 gusting 17 1.1
2015-Jan-28 21:18 129 6 gusting 13 1.1
2015-Jan-28 21:08 104 5 gusting 12 1.1
2015-Jan-28 20:58 092 2 gusting 11 1.1
2015-Jan-28 20:48 107 1 gusting 8 1.1
2015-Jan-28 20:38 119 3 gusting 7 0.6
2015-Jan-28 20:28 092 2 gusting 7 1.1
2015-Jan-28 20:18 107 1 gusting 11 1.1
2015-Jan-28 20:08 111 5 gusting 10 1.1
2015-Jan-28 19:58 090 2 gusting 7 0.6
2015-Jan-28 19:48 090 0 gusting 4 0.6
2015-Jan-28 19:38 119 1 gusting 8 0.6
2015-Jan-28 19:28 093 0 gusting 10 1.1
2015-Jan-28 19:18 084 5 gusting 10 0.6
2015-Jan-28 19:08 119 0 gusting 6 1.1
2015-Jan-28 18:58 098 2 gusting 7 0.6
2015-Jan-28 18:48 109 3 gusting 10 0.6
2015-Jan-28 18:38 057 0 gusting 4 -0.0
2015-Jan-28 18:28 026 2 gusting 8 -0.0
2015-Jan-28 18:18 030 2 gusting 5 -0.0
2015-Jan-28 18:08 027 1 gusting 7 -0.0
2015-Jan-28 17:58 049 0 gusting 2 -0.0
2015-Jan-28 17:48 049 -0.0
2015-Jan-28 17:38 049 1 gusting 5 -0.0
2015-Jan-28 17:28 070 -0.0
2015-Jan-28 17:18 070 1 gusting 5 -0.0
2015-Jan-28 17:08 055 0 gusting 2 -0.0
2015-Jan-28 16:58 055 -0.0
2015-Jan-28 16:48 054 1 gusting 2 -0.0
2015-Jan-28 16:38 054 0 gusting 2 -0.0
2015-Jan-28 16:28 053 1 gusting 2 -0.0
2015-Jan-28 16:18 053 0 gusting 4 -0.0
2015-Jan-28 16:08 053 1 gusting 4 -0.0
2015-Jan-28 15:58 051 0 gusting 5 -0.0
2015-Jan-28 15:48 042 1 gusting 5 -0.0
2015-Jan-28 15:38 049 1 gusting 4 -0.0
2015-Jan-28 15:28 050 0 gusting 4 -0.0
2015-Jan-28 15:18 052 -0.0
2015-Jan-28 15:08 053 -0.0
2015-Jan-28 14:58 049 0.6
2015-Jan-28 14:48 045 0 gusting 5 0.6
2015-Jan-28 14:38 051 0 gusting 6 0.6
2015-Jan-28 14:28 031 0.6
2015-Jan-28 14:18 030 0.6
2015-Jan-28 14:08 030 1 gusting 5 0.6
2015-Jan-28 13:58 041 0 gusting 2 0.6
2015-Jan-28 13:48 049 0.6
2015-Jan-28 13:38 049 0 gusting 4 0.6
2015-Jan-28 13:28 034 0.6
2015-Jan-28 13:18 034 0.6
2015-Jan-28 13:08 034 -0.0
2015-Jan-28 12:58 033 -0.0
2015-Jan-28 12:48 032 0.6
2015-Jan-28 12:38 064 0.6
2015-Jan-28 12:28 064 0.6
2015-Jan-28 12:18 064 0.6
2015-Jan-28 12:08 064 0.6
2015-Jan-28 11:58 064 0.6
2015-Jan-28 11:48 064 0.6
2015-Jan-28 11:38 064 0.6
2015-Jan-28 11:28 064 0.6
2015-Jan-28 11:18 064 0.6
2015-Jan-28 11:08 064 0.6
2015-Jan-28 10:58 064 0.6
2015-Jan-28 10:48 064 0.6
2015-Jan-28 10:38 064 0.6
2015-Jan-28 10:28 064 -0.0
2015-Jan-28 10:18 064 -0.0
2015-Jan-28 10:08 064 -0.0
2015-Jan-28 09:58 062 -0.0
2015-Jan-28 09:48 061 -0.0
2015-Jan-28 09:38 062 -0.0
2015-Jan-28 09:28 062 -0.0
2015-Jan-28 09:18 062 -0.0
2015-Jan-28 09:08 061 -0.0
2015-Jan-28 08:58 061 -0.0
2015-Jan-28 08:48 061 -0.0
2015-Jan-28 08:38 061 -0.0
2015-Jan-28 08:28 061 -0.0
2015-Jan-28 08:18 061 -0.0
2015-Jan-28 08:08 061 -0.0
2015-Jan-28 07:58 061 -0.0
2015-Jan-28 07:48 061 -0.0
2015-Jan-28 07:38 061 -0.0
2015-Jan-28 07:28 061 -0.0
2015-Jan-28 07:18 061 -0.0
2015-Jan-28 07:08 061 -0.0
2015-Jan-28 06:58 061 -0.0
2015-Jan-28 06:48 061 -0.0
2015-Jan-28 05:38 066 -0.0
2015-Jan-28 05:28 066 -0.0
2015-Jan-28 05:18 067 -0.0
2015-Jan-28 05:08 067 -0.0
2015-Jan-28 04:58 067 -0.0
2015-Jan-28 04:48 069 -0.0
2015-Jan-28 04:38 069 -0.0
2015-Jan-28 04:28 070 -0.0
2015-Jan-28 04:18 070 -0.0
2015-Jan-28 04:08 070 -0.0
2015-Jan-28 03:58 070 -0.0
2015-Jan-28 03:48 070 -0.0
2015-Jan-28 03:38 071 -0.0
2015-Jan-28 03:28 071 -0.0
2015-Jan-28 03:18 073 -0.0
2015-Jan-28 03:08 073 -0.0
2015-Jan-28 02:58 073 -0.0
2015-Jan-28 02:48 073 -0.0
2015-Jan-28 02:38 094 -0.0
2015-Jan-28 02:28 094 -0.0
2015-Jan-28 02:18 094 -0.0
2015-Jan-28 02:08 094 -0.0
2015-Jan-28 01:58 094 -0.0
2015-Jan-28 01:48 094 -0.0
2015-Jan-28 01:38 097 -0.0
2015-Jan-28 01:28 302 0 gusting 2 -0.0
2015-Jan-28 01:18 296 0 gusting 2 -0.0
2015-Jan-28 01:08 018 -0.0
2015-Jan-28 00:58 018 0 gusting 5 -0.0
2015-Jan-28 00:48 349 0 gusting 2 -0.0
2015-Jan-28 00:38 354 1 gusting 5 -0.0
2015-Jan-28 00:28 103 0 gusting 5 -0.6
2015-Jan-28 00:18 071 0 gusting 6 -0.6
2015-Jan-28 00:08 129 1 gusting 5 -0.6
2015-Jan-27 23:58 129 4 gusting 13 -0.6
2015-Jan-27 23:48 120 6 gusting 13 -0.6
2015-Jan-27 23:38 132 6 gusting 12 -0.6
2015-Jan-27 23:28 132 8 gusting 15 -0.6
2015-Jan-27 23:18 123 8 gusting 14 -0.0
2015-Jan-27 23:08 134 7 gusting 15 -0.0
2015-Jan-27 22:58 124 6 gusting 17 -0.0
2015-Jan-27 22:48 119 10 gusting 15 -0.0
2015-Jan-27 22:38 103 8 gusting 14 -0.0
2015-Jan-27 22:28 132 8 gusting 15 0.6
2015-Jan-27 22:18 113 8 gusting 13 0.6
2015-Jan-27 22:08 138 5 gusting 12 0.6
2015-Jan-27 21:58 117 7 gusting 13 0.6
2015-Jan-27 21:48 119 6 gusting 12 0.6
2015-Jan-27 21:38 117 4 gusting 12 0.6
2015-Jan-27 21:28 137 6 gusting 12 1.1
2015-Jan-27 21:18 131 7 gusting 13 1.1
2015-Jan-27 21:08 126 5 gusting 10 1.1
2015-Jan-27 20:58 124 4 gusting 11 1.1
2015-Jan-27 20:48 136 8 gusting 13 1.1
2015-Jan-27 20:38 131 6 gusting 11 1.1
2015-Jan-27 20:28 134 5 gusting 11 1.1
2015-Jan-27 20:18 116 5 gusting 8 1.1
2015-Jan-27 20:08 122 1 gusting 6 0.6
2015-Jan-27 19:58 122 2 gusting 6 0.6
2015-Jan-27 19:48 122 0 gusting 6 0.6
2015-Jan-27 19:38 122 1 gusting 6 0.6
2015-Jan-27 19:28 122 2 gusting 6 0.6
2015-Jan-27 19:18 122 1 gusting 6 0.6
2015-Jan-27 19:08 122 3 gusting 6 0.6
2015-Jan-27 18:58 123 6 gusting 8 0.6
2015-Jan-27 18:48 123 1 gusting 6 0.6
2015-Jan-27 18:38 123 1 gusting 2 0.6
2015-Jan-27 18:28 123 0 gusting 5 0.6
2015-Jan-27 18:18 123 1 gusting 4 0.6
2015-Jan-27 18:08 123 1 gusting 6 0.6
2015-Jan-27 17:58 123 1 gusting 7 0.6
2015-Jan-27 17:48 126 4 gusting 6 0.6
2015-Jan-27 17:38 126 1 gusting 4 0.6
2015-Jan-27 17:28 126 0 gusting 1 0.6
2015-Jan-27 17:18 126 0 gusting 2 0.6
2015-Jan-27 17:08 126 0.6
2015-Jan-27 16:58 126 0.6
2015-Jan-27 16:48 126 0 gusting 2 0.6
2015-Jan-27 16:38 126 0.6
2015-Jan-27 16:28 126 0 gusting 10 0.6
2015-Jan-27 16:18 135 -0.0
2015-Jan-27 16:08 136 0 gusting 2 -0.0
2015-Jan-27 15:58 136 0 gusting 4 -0.0
2015-Jan-27 15:48 136 0 gusting 2 -0.0
2015-Jan-27 15:38 244 -0.0
2015-Jan-27 15:28 244 -0.0
2015-Jan-27 15:18 244 0.6
2015-Jan-27 15:08 244 0.6
2015-Jan-27 14:58 244 1 gusting 6 1.1
2015-Jan-27 14:48 239 2 gusting 7 1.7
2015-Jan-27 14:38 207 1 gusting 8 1.7
2015-Jan-27 14:28 191 3 gusting 10 1.7
2015-Jan-27 14:18 167 6 gusting 10 1.1
2015-Jan-27 14:08 159 2 gusting 8 1.1
2015-Jan-27 13:58 143 4 gusting 8 1.7
2015-Jan-27 13:48 148 3 gusting 6 1.1
2015-Jan-27 13:38 147 1 gusting 7 1.1
2015-Jan-27 13:28 152 6 gusting 10 1.1
2015-Jan-27 13:18 154 4 gusting 8 1.1
2015-Jan-27 13:08 172 1 gusting 7 1.1
2015-Jan-27 12:58 197 1 gusting 7 1.1
2015-Jan-27 12:48 189 2 gusting 11 1.1
2015-Jan-27 12:38 172 3 gusting 10 1.1
2015-Jan-27 12:28 175 4 gusting 12 1.7
2015-Jan-27 12:18 167 8 gusting 14 1.7
2015-Jan-27 12:08 194 5 gusting 11 1.7
2015-Jan-27 11:58 159 4 gusting 8 1.1
2015-Jan-27 11:48 150 4 gusting 10 1.1
2015-Jan-27 11:38 172 7 gusting 11 1.1
2015-Jan-27 11:28 169 1 gusting 7 1.1
2015-Jan-27 11:18 207 1.1
2015-Jan-27 11:08 248 0 gusting 4 1.1
2015-Jan-27 10:58 204 2 gusting 10 1.1
2015-Jan-27 10:48 135 4 gusting 8 1.1
2015-Jan-27 10:38 142 4 gusting 8 1.1
2015-Jan-27 10:28 180 1.1
2015-Jan-27 10:18 213 1.1
2015-Jan-27 10:08 213 1.1
2015-Jan-27 09:58 234 2 gusting 10 1.1
2015-Jan-27 09:48 173 5 gusting 12 1.1
2015-Jan-27 09:38 161 5 gusting 11 0.6
2015-Jan-27 09:28 119 0 gusting 2 0.6
2015-Jan-27 09:18 151 0.6
2015-Jan-27 09:08 190 0.6
2015-Jan-27 08:58 194 1 gusting 12 0.6
2015-Jan-27 08:48 202 2 gusting 7 1.1
2015-Jan-27 08:38 178 0.6
2015-Jan-27 08:28 135 0 gusting 8 0.6
2015-Jan-27 08:18 119 0 gusting 4 0.6
2015-Jan-27 08:08 119 0.6
2015-Jan-27 07:58 132 0 gusting 4 0.6
2015-Jan-27 07:48 188 0 gusting 5 0.6
2015-Jan-27 07:38 190 5 gusting 11 0.6
2015-Jan-27 07:28 173 3 gusting 7 0.6
2015-Jan-27 07:18 181 2 gusting 10 1.1
2015-Jan-27 07:08 196 8 gusting 17 1.1
2015-Jan-27 06:58 247 1 gusting 7 1.1
2015-Jan-27 06:48 243 2 gusting 10 1.1